TimeEDT,TemperatureF,Dew PointF,Humidity,Sea Level PressureIn,VisibilityMPH,Wind Direction,Wind SpeedMPH,Gust SpeedMPH,PrecipitationIn,Events,Conditions,WindDirDegrees,DateUTC
12:52 AM,61.0,55.0,81,30.19,10.0,Calm,Calm,-,N/A,,Partly Cloudy,0,2013-09-19 04:52:00
1:52 AM,64.0,53.1,67,30.18,10.0,SE,5.8,-,N/A,,Partly Cloudy,130,2013-09-19 05:52:00
2:52 AM,63.0,52.0,67,30.17,10.0,East,3.5,-,N/A,,Partly Cloudy,90,2013-09-19 06:52:00
3:52 AM,60.1,55.9,86,30.17,10.0,North,4.6,-,N/A,,Overcast,360,2013-09-19 07:52:00
4:52 AM,61.0,55.0,81,30.17,10.0,North,3.5,-,N/A,,Overcast,10,2013-09-19 08:52:00
5:52 AM,62.1,55.0,78,30.17,10.0,Calm,Calm,-,N/A,,Overcast,0,2013-09-19 09:52:00
6:52 AM,64.0,51.1,63,30.17,10.0,SE,3.5,-,N/A,,Overcast,140,2013-09-19 10:52:00
7:52 AM,64.0,51.1,63,30.18,10.0,SE,5.8,-,N/A,,Overcast,130,2013-09-19 11:52:00
8:52 AM,64.9,52.0,63,30.19,10.0,South,5.8,-,N/A,,Overcast,180,2013-09-19 12:52:00
9:52 AM,66.0,53.1,63,30.20,10.0,SSE,5.8,-,N/A,,Overcast,150,2013-09-19 13:52:00
10:52 AM,68.0,53.1,59,30.20,10.0,South,4.6,-,N/A,,Overcast,180,2013-09-19 14:52:00
11:52 AM,70.0,54.0,57,30.20,10.0,Calm,Calm,-,N/A,,Overcast,0,2013-09-19 15:52:00
12:52 PM,73.9,55.0,52,30.18,10.0,South,5.8,-,N/A,,Mostly Cloudy,170,2013-09-19 16:52:00
1:52 PM,75.9,57.9,54,30.15,10.0,Calm,Calm,-,N/A,,Mostly Cloudy,0,2013-09-19 17:52:00
2:52 PM,78.1,59.0,52,30.13,10.0,NW,3.5,-,N/A,,Mostly Cloudy,310,2013-09-19 18:52:00
3:52 PM,79.0,60.1,52,30.11,10.0,Variable,3.5,-,N/A,,Mostly Cloudy,0,2013-09-19 19:52:00
4:52 PM,79.0,60.1,52,30.11,10.0,SSW,3.5,-,N/A,,Mostly Cloudy,210,2013-09-19 20:52:00
5:52 PM,80.1,61.0,52,30.09,10.0,Calm,Calm,-,N/A,,Mostly Cloudy,0,2013-09-19 21:52:00
6:52 PM,78.1,61.0,56,30.10,10.0,Calm,Calm,-,N/A,,Mostly Cloudy,0,2013-09-19 22:52:00
7:52 PM,75.0,60.1,60,30.10,10.0,SE,6.9,-,N/A,,Mostly Cloudy,140,2013-09-19 23:52:00
8:52 PM,72.0,61.0,68,30.10,10.0,South,4.6,-,N/A,,Scattered Clouds,180,2013-09-20 00:52:00
9:52 PM,70.0,61.0,73,30.10,10.0,SSE,4.6,-,N/A,,Scattered Clouds,160,2013-09-20 01:52:00
10:52 PM,69.1,62.1,78,30.09,10.0,Calm,Calm,-,N/A,,Partly Cloudy,0,2013-09-20 02:52:00
11:52 PM,68.0,61.0,78,30.10,10.0,Calm,Calm,-,N/A,,Mostly Cloudy,0,2013-09-20 03:52:00